This is the latest recevied weather packets stored in our database for station/object KK4WXG. If no packets are shown the sender has not sent any weather packets the latest 10 day(s).
| Time | Temp. | Humidity | Pressure | Rain* | Wind** | Luminosity | Snow |
|---|---|---|---|---|---|---|---|
| 1778084143 | 17.78° C | 85% | 1008.1 hPa | 0 mm | - | 396 W/m² | - |
| 1778083839 | 17.78° C | 87% | 1008.1 hPa | 0 mm | - | 359 W/m² | - |
| 1778083537 | 17.78° C | 87% | 1008.2 hPa | 0 mm | - | 305 W/m² | - |
| 1778083234 | 17.78° C | 87% | 1008 hPa | 0 mm | - | 299 W/m² | - |
| 1778082933 | 17.22° C | 88% | 1008 hPa | 0 mm | - | 348 W/m² | - |
| 1778081824 | 16.67° C | 90% | 1008.3 hPa | 0 mm | - | 184 W/m² | - |
| 1778081521 | 16.67° C | 90% | 1008.5 hPa | 0 mm | - | 194 W/m² | - |
| 1778081218 | 16.67° C | 90% | 1008.2 hPa | 0 mm | - | 314 W/m² | - |
| 1778080915 | 16.67° C | 90% | 1008.2 hPa | 0 mm | - | 220 W/m² | - |
| 1778080614 | 16.67° C | 92% | 1008.4 hPa | 0 mm | - | 335 W/m² | - |
| 1778080310 | 16.67° C | 92% | 1008.2 hPa | 0 mm | - | 269 W/m² | - |
| 1778080007 | 16.11° C | 93% | 1008.2 hPa | 0 mm | - | 380 W/m² | - |
| 1778079704 | 16.11° C | 92% | 1008.5 hPa | 0 mm | - | 175 W/m² | - |
| 1778079401 | 16.11° C | 94% | 1008.7 hPa | 0 mm | - | 205 W/m² | - |
| 1778079097 | 16.11° C | 94% | 1008.4 hPa | 0 mm | - | 184 W/m² | - |
| 1778078796 | 16.11° C | 94% | 1008.4 hPa | 0.51 mm | - | 179 W/m² | - |
| 1778078492 | 16.11° C | 93% | 1008.6 hPa | 1.27 mm | - | 216 W/m² | - |
| 1778078190 | 16.11° C | 93% | 1008.6 hPa | 0 mm | - | 155 W/m² | - |
| 1778077887 | 16.11° C | 93% | 1008.6 hPa | 0 mm | - | 142 W/m² | - |
| 1778077586 | 16.11° C | 93% | 1008.9 hPa | 0 mm | - | 180 W/m² | - |
| 1778077283 | 16.11° C | 93% | 1008.9 hPa | 0 mm | - | 201 W/m² | - |
| 1778076981 | 16.11° C | 93% | 1008.7 hPa | 0 mm | - | 139 W/m² | - |
| 1778076679 | 15.56° C | 93% | 1008.9 hPa | 0 mm | - | 111 W/m² | - |
| 1778076376 | 15.56° C | 94% | 1009.1 hPa | 0.51 mm | - | 98 W/m² | - |
| 1778076073 | 15.56° C | 94% | 1008.9 hPa | 0.51 mm | - | 125 W/m² | - |
* Rain latest hour (hover to see other rain measurements)
** Current wind speed in m/s (hover to see current wind gust speed)